Time,TemperatureF,DewpointF,PressureIn,WindDirection,WindDirectionDegrees,WindSpeedMPH,WindSpeedGustMPH,Humidity,HourlyPrecipIn,Conditions,Clouds,dailyrainin,SoftwareType,DateUTC
2013-03-11 00:03:00,46.5,46.0,30.42,North,349,7.0,9.0,98,0.00,,,0.00,Wunderground v.1.15,2013-03-11 07:03:00,
2013-03-11 00:08:00,46.4,45.9,30.41,North,355,7.0,9.0,98,0.00,,,0.00,Wunderground v.1.15,2013-03-11 07:08:00,
2013-03-11 00:14:00,46.4,45.9,30.41,North,355,8.0,10.0,98,0.00,,,0.00,Wunderground v.1.15,2013-03-11 07:14:00,
2013-03-11 00:20:00,46.4,45.9,30.41,North,351,7.0,8.0,98,0.00,,,0.00,Wunderground v.1.15,2013-03-11 07:20:00,
2013-03-11 00:26:00,46.3,45.8,30.41,North,355,7.0,9.0,98,0.00,,,0.00,Wunderground v.1.15,2013-03-11 07:26:00,
2013-03-11 00:32:00,46.3,45.8,30.41,North,355,8.0,10.0,98,0.00,,,0.00,Wunderground v.1.15,2013-03-11 07:32:00,
2013-03-11 00:37:00,46.3,45.8,30.41,North,360,8.0,10.0,98,0.00,,,0.00,Wunderground v.1.15,2013-03-11 07:37:00,
2013-03-11 00:43:00,46.3,45.8,30.41,North,360,7.0,7.0,98,0.00,,,0.00,Wunderground v.1.15,2013-03-11 07:43:00,
2013-03-11 00:48:00,46.3,45.8,30.41,North,355,5.0,7.0,98,0.00,,,0.00,Wunderground v.1.15,2013-03-11 07:48:00,
2013-03-11 00:54:00,46.3,45.8,30.41,North,355,3.0,6.0,98,0.00,,,0.00,Wunderground v.1.15,2013-03-11 07:54:00,
2013-03-11 00:59:00,46.3,45.8,30.41,North,355,2.0,6.0,98,0.00,,,0.00,Wunderground v.1.15,2013-03-11 07:59:00,
2013-03-11 01:05:00,46.3,45.8,30.41,North,350,3.0,12.0,98,0.00,,,0.00,Wunderground v.1.15,2013-03-11 08:05:00,
2013-03-11 01:11:00,46.3,45.8,30.41,North,355,5.0,12.0,98,0.00,,,0.00,Wunderground v.1.15,2013-03-11 08:11:00,
2013-03-11 01:17:00,46.2,45.7,30.41,North,360,4.0,12.0,98,0.00,,,0.00,Wunderground v.1.15,2013-03-11 08:17:00,
2013-03-11 01:23:00,46.2,45.7,30.41,North,355,4.0,12.0,98,0.00,,,0.00,Wunderground v.1.15,2013-03-11 08:23:00,
2013-03-11 01:28:00,46.2,45.7,30.41,North,360,4.0,12.0,98,0.00,,,0.00,Wunderground v.1.15,2013-03-11 08:28:00,
2013-03-11 01:34:00,46.2,45.7,30.41,North,355,4.0,12.0,98,0.00,,,0.00,Wunderground v.1.15,2013-03-11 08:34:00,
2013-03-11 01:40:00,46.2,45.7,30.41,North,355,4.0,12.0,98,0.00,,,0.00,Wunderground v.1.15,2013-03-11 08:40:00,
2013-03-11 01:45:00,46.2,45.7,30.41,North,355,3.0,12.0,98,0.00,,,0.00,Wunderground v.1.15,2013-03-11 08:45:00,
2013-03-11 01:50:00,46.2,45.7,30.42,North,350,3.0,12.0,98,0.00,,,0.00,Wunderground v.1.15,2013-03-11 08:50:00,
2013-03-11 01:57:00,46.1,45.6,30.42,North,350,4.0,12.0,98,0.00,,,0.00,Wunderground v.1.15,2013-03-11 08:57:00,
2013-03-11 02:03:00,46.1,45.6,30.42,North,350,3.0,12.0,98,0.00,,,0.00,Wunderground v.1.15,2013-03-11 09:03:00,
2013-03-11 02:09:00,46.1,45.6,30.42,North,350,3.0,12.0,98,0.00,,,0.00,Wunderground v.1.15,2013-03-11 09:09:00,
2013-03-11 02:14:00,46.1,45.6,30.42,North,350,2.0,12.0,98,0.00,,,0.00,Wunderground v.1.15,2013-03-11 09:14:00,
2013-03-11 02:19:00,46.1,45.6,30.42,North,350,3.0,12.0,98,0.00,,,0.00,Wunderground v.1.15,2013-03-11 09:19:00,
2013-03-11 02:25:00,46.1,45.6,30.42,North,350,3.0,12.0,98,0.00,,,0.00,Wunderground v.1.15,2013-03-11 09:25:00,
2013-03-11 02:30:00,46.1,45.6,30.42,North,350,2.0,2.0,98,0.00,,,0.00,Wunderground v.1.15,2013-03-11 09:30:00,
2013-03-11 02:36:00,46.1,45.6,30.42,North,350,1.0,12.0,98,0.00,,,0.00,Wunderground v.1.15,2013-03-11 09:36:00,
2013-03-11 02:41:00,46.2,45.7,30.41,North,350,1.0,12.0,98,0.00,,,0.00,Wunderground v.1.15,2013-03-11 09:41:00,
2013-03-11 02:47:00,46.1,45.6,30.41,North,355,2.0,12.0,98,0.00,,,0.00,Wunderground v.1.15,2013-03-11 09:47:00,
2013-03-11 02:53:00,46.1,45.6,30.41,North,355,2.0,12.0,98,0.00,,,0.00,Wunderground v.1.15,2013-03-11 09:53:00,
2013-03-11 02:58:00,46.1,45.6,30.41,North,355,2.0,12.0,98,0.00,,,0.00,Wunderground v.1.15,2013-03-11 09:58:00,
2013-03-11 03:04:00,46.1,45.6,30.41,North,355,2.0,12.0,98,0.00,,,0.00,Wunderground v.1.15,2013-03-11 10:04:00,
2013-03-11 03:09:00,46.1,45.6,30.41,North,355,2.0,12.0,98,0.00,,,0.00,Wunderground v.1.15,2013-03-11 10:09:00,
2013-03-11 03:15:00,46.1,45.6,30.41,North,355,2.0,12.0,98,0.00,,,0.00,Wunderground v.1.15,2013-03-11 10:15:00,
2013-03-11 03:20:00,46.0,45.5,30.40,North,360,3.0,3.0,98,0.00,,,0.00,Wunderground v.1.15,2013-03-11 10:20:00,
2013-03-11 03:26:00,45.9,45.4,30.40,NNE,30,3.0,12.0,98,0.00,,,0.00,Wunderground v.1.15,2013-03-11 10:26:00,
2013-03-11 03:31:00,45.8,45.3,30.40,NE,40,3.0,12.0,98,0.00,,,0.00,Wunderground v.1.15,2013-03-11 10:31:00,
2013-03-11 03:37:00,45.8,45.3,30.40,NE,46,3.0,12.0,98,0.00,,,0.00,Wunderground v.1.15,2013-03-11 10:37:00,
2013-03-11 03:42:00,45.8,45.3,30.40,ENE,57,4.0,12.0,98,0.00,,,0.00,Wunderground v.1.15,2013-03-11 10:42:00,
2013-03-11 03:47:00,45.9,45.4,30.39,ENE,57,3.0,12.0,98,0.00,,,0.00,Wunderground v.1.15,2013-03-11 10:47:00,
2013-03-11 03:53:00,45.9,45.4,30.39,ENE,71,3.0,12.0,98,0.00,,,0.00,Wunderground v.1.15,2013-03-11 10:53:00,
2013-03-11 03:59:00,45.9,45.4,30.39,ENE,71,3.0,12.0,98,0.00,,,0.00,Wunderground v.1.15,2013-03-11 10:59:00,
2013-03-11 04:04:00,45.9,45.4,30.39,ENE,71,3.0,12.0,98,0.00,,,0.00,Wunderground v.1.15,2013-03-11 11:04:00,
2013-03-11 04:09:00,45.9,45.4,30.38,ENE,71,3.0,12.0,98,0.00,,,0.00,Wunderground v.1.15,2013-03-11 11:09:00,
2013-03-11 04:14:00,45.9,45.4,30.38,ENE,71,3.0,12.0,98,0.00,,,0.00,Wunderground v.1.15,2013-03-11 11:14:00,
2013-03-11 04:19:00,45.8,45.3,30.38,ENE,71,3.0,12.0,98,0.00,,,0.00,Wunderground v.1.15,2013-03-11 11:19:00,
2013-03-11 04:25:00,45.8,45.3,30.38,ENE,71,2.0,12.0,98,0.00,,,0.00,Wunderground v.1.15,2013-03-11 11:25:00,
2013-03-11 04:31:00,45.8,45.3,30.38,ENE,71,2.0,12.0,98,0.00,,,0.00,Wunderground v.1.15,2013-03-11 11:31:00,
2013-03-11 04:36:00,45.8,45.3,30.38,ENE,71,2.0,12.0,98,0.00,,,0.00,Wunderground v.1.15,2013-03-11 11:36:00,
2013-03-11 04:42:00,45.8,45.3,30.38,ENE,71,2.0,12.0,98,0.00,,,0.00,Wunderground v.1.15,2013-03-11 11:42:00,
2013-03-11 04:48:00,45.8,45.3,30.38,ENE,71,2.0,12.0,98,0.00,,,0.00,Wunderground v.1.15,2013-03-11 11:48:00,
2013-03-11 04:53:00,45.8,45.3,30.37,ENE,71,2.0,12.0,98,0.00,,,0.00,Wunderground v.1.15,2013-03-11 11:53:00,
2013-03-11 04:58:00,45.8,45.3,30.38,ENE,71,2.0,12.0,98,0.00,,,0.00,Wunderground v.1.15,2013-03-11 11:58:00,
2013-03-11 05:04:00,45.9,45.4,30.38,ENE,71,1.0,12.0,98,0.00,,,0.00,Wunderground v.1.15,2013-03-11 12:04:00,
2013-03-11 05:10:00,45.9,45.4,30.38,ENE,71,1.0,12.0,98,0.00,,,0.00,Wunderground v.1.15,2013-03-11 12:10:00,
2013-03-11 05:16:00,45.9,45.4,30.38,ENE,71,2.0,12.0,98,0.00,,,0.00,Wunderground v.1.15,2013-03-11 12:16:00,
2013-03-11 05:21:00,45.9,45.4,30.38,ENE,71,1.0,12.0,98,0.00,,,0.00,Wunderground v.1.15,2013-03-11 12:21:00,
2013-03-11 05:27:00,46.0,45.7,30.38,ENE,71,1.0,12.0,99,0.00,,,0.00,Wunderground v.1.15,2013-03-11 12:27:00,
2013-03-11 05:33:00,46.0,45.7,30.38,ENE,71,1.0,12.0,99,0.00,,,0.00,Wunderground v.1.15,2013-03-11 12:33:00,
2013-03-11 05:38:00,46.0,45.7,30.38,ENE,71,0.0,12.0,99,0.00,,,0.00,Wunderground v.1.15,2013-03-11 12:38:00,
2013-03-11 05:44:00,46.0,45.7,30.38,ENE,71,1.0,12.0,99,0.00,,,0.00,Wunderground v.1.15,2013-03-11 12:44:00,
2013-03-11 05:49:00,46.0,45.7,30.38,ENE,71,2.0,12.0,99,0.00,,,0.00,Wunderground v.1.15,2013-03-11 12:49:00,
2013-03-11 05:54:00,45.9,45.4,30.38,ENE,71,2.0,12.0,98,0.00,,,0.00,Wunderground v.1.15,2013-03-11 12:54:00,
2013-03-11 06:00:00,45.7,45.2,30.38,ENE,71,2.0,12.0,98,0.00,,,0.00,Wunderground v.1.15,2013-03-11 13:00:00,
2013-03-11 06:05:00,45.7,45.2,30.38,ENE,71,2.0,12.0,98,0.00,,,0.00,Wunderground v.1.15,2013-03-11 13:05:00,
2013-03-11 06:12:00,45.6,45.1,30.38,ENE,71,2.0,12.0,98,0.00,,,0.00,Wunderground v.1.15,2013-03-11 13:12:00,
2013-03-11 06:18:00,45.5,45.0,30.38,ENE,71,3.0,12.0,98,0.00,,,0.00,Wunderground v.1.15,2013-03-11 13:18:00,
2013-03-11 06:24:00,45.5,45.2,30.37,ENE,71,3.0,12.0,99,0.00,,,0.00,Wunderground v.1.15,2013-03-11 13:24:00,
2013-03-11 06:29:00,45.5,45.2,30.38,ENE,71,2.0,12.0,99,0.00,,,0.00,Wunderground v.1.15,2013-03-11 13:29:00,
2013-03-11 06:34:00,45.4,45.1,30.38,ENE,71,2.0,12.0,99,0.00,,,0.00,Wunderground v.1.15,2013-03-11 13:34:00,
2013-03-11 06:39:00,45.4,45.1,30.38,ENE,71,2.0,12.0,99,0.00,,,0.00,Wunderground v.1.15,2013-03-11 13:39:00,
2013-03-11 06:44:00,45.4,45.1,30.38,ENE,71,2.0,12.0,99,0.00,,,0.00,Wunderground v.1.15,2013-03-11 13:44:00,
2013-03-11 06:50:00,45.4,45.1,30.38,ENE,71,1.0,1.0,99,0.00,,,0.00,Wunderground v.1.15,2013-03-11 13:50:00,
2013-03-11 06:55:00,45.5,45.2,30.38,ENE,71,0.0,12.0,99,0.00,,,0.00,Wunderground v.1.15,2013-03-11 13:55:00,
2013-03-11 07:00:00,45.5,45.2,30.38,ENE,71,1.0,12.0,99,0.00,,,0.00,Wunderground v.1.15,2013-03-11 14:00:00,
2013-03-11 07:07:00,45.6,45.3,30.38,ENE,71,1.0,12.0,99,0.00,,,0.00,Wunderground v.1.15,2013-03-11 14:07:00,
2013-03-11 07:13:00,45.6,45.3,30.37,ENE,71,2.0,12.0,99,0.00,,,0.00,Wunderground v.1.15,2013-03-11 14:13:00,
2013-03-11 07:19:00,45.6,45.3,30.37,ENE,71,2.0,12.0,99,0.00,,,0.00,Wunderground v.1.15,2013-03-11 14:19:00,
2013-03-11 07:24:00,45.6,45.3,30.37,ENE,71,2.0,12.0,99,0.00,,,0.00,Wunderground v.1.15,2013-03-11 14:24:00,
2013-03-11 07:29:00,45.6,45.3,30.37,ENE,71,2.0,12.0,99,0.00,,,0.00,Wunderground v.1.15,2013-03-11 14:29:00,
2013-03-11 07:35:00,45.7,45.4,30.37,ENE,71,2.0,12.0,99,0.00,,,0.00,Wunderground v.1.15,2013-03-11 14:35:00,
2013-03-11 07:40:00,45.8,45.5,30.37,ENE,71,2.0,12.0,99,0.00,,,0.00,Wunderground v.1.15,2013-03-11 14:40:00,
2013-03-11 07:46:00,45.9,45.6,30.37,ENE,71,2.0,12.0,99,0.00,,,0.00,Wunderground v.1.15,2013-03-11 14:46:00,
2013-03-11 07:51:00,45.9,45.6,30.37,ENE,71,3.0,12.0,99,0.00,,,0.00,Wunderground v.1.15,2013-03-11 14:51:00,
2013-03-11 07:56:00,45.9,45.6,30.37,ENE,71,4.0,12.0,99,0.00,,,0.00,Wunderground v.1.15,2013-03-11 14:56:00,
2013-03-11 08:01:00,45.9,45.4,30.37,ENE,71,4.0,12.0,98,0.00,,,0.00,Wunderground v.1.15,2013-03-11 15:01:00,
2013-03-11 08:07:00,45.9,45.4,30.37,ENE,71,3.0,12.0,98,0.00,,,0.00,Wunderground v.1.15,2013-03-11 15:07:00,
2013-03-11 08:12:00,45.9,45.4,30.37,ENE,71,3.0,12.0,98,0.00,,,0.00,Wunderground v.1.15,2013-03-11 15:12:00,
2013-03-11 08:18:00,45.9,45.4,30.37,ENE,71,3.0,12.0,98,0.00,,,0.00,Wunderground v.1.15,2013-03-11 15:18:00,
2013-03-11 08:23:00,45.8,45.3,30.36,East,82,4.0,12.0,98,0.00,,,0.00,Wunderground v.1.15,2013-03-11 15:23:00,
2013-03-11 08:28:00,45.7,45.2,30.36,East,82,5.0,12.0,98,0.00,,,0.00,Wunderground v.1.15,2013-03-11 15:28:00,
2013-03-11 08:34:00,45.7,45.2,30.37,East,88,4.0,12.0,98,0.00,,,0.00,Wunderground v.1.15,2013-03-11 15:34:00,
2013-03-11 08:40:00,45.6,45.3,30.36,ENE,70,4.0,12.0,99,0.00,,,0.00,Wunderground v.1.15,2013-03-11 15:40:00,
2013-03-11 08:46:00,45.4,45.1,30.36,ENE,67,5.0,12.0,99,0.00,,,0.00,Wunderground v.1.15,2013-03-11 15:46:00,
2013-03-11 08:53:00,45.3,45.0,30.36,East,88,5.0,12.0,99,0.00,,,0.00,Wunderground v.1.15,2013-03-11 15:53:00,
2013-03-11 08:59:00,45.3,44.8,30.37,ENE,67,4.0,12.0,98,0.00,,,0.00,Wunderground v.1.15,2013-03-11 15:59:00,
2013-03-11 09:05:00,45.4,45.1,30.36,ENE,65,4.0,12.0,99,0.00,,,0.00,Wunderground v.1.15,2013-03-11 16:05:00,
2013-03-11 09:10:00,45.0,44.5,30.37,ENE,66,5.0,5.0,98,0.00,,,0.00,Wunderground v.1.15,2013-03-11 16:10:00,
2013-03-11 09:15:00,44.9,44.4,30.37,ENE,67,6.0,12.0,98,0.00,,,0.00,Wunderground v.1.15,2013-03-11 16:15:00,
2013-03-11 09:21:00,44.9,44.4,30.37,ENE,64,6.0,12.0,98,0.00,,,0.00,Wunderground v.1.15,2013-03-11 16:21:00,
2013-03-11 09:27:00,44.8,44.3,30.37,ENE,62,6.0,12.0,98,0.00,,,0.00,Wunderground v.1.15,2013-03-11 16:27:00,
2013-03-11 09:33:00,44.9,44.6,30.37,ENE,71,5.0,12.0,99,0.00,,,0.00,Wunderground v.1.15,2013-03-11 16:33:00,
2013-03-11 09:39:00,44.9,44.4,30.37,ENE,67,5.0,12.0,98,0.00,,,0.00,Wunderground v.1.15,2013-03-11 16:39:00,
2013-03-11 09:44:00,45.1,44.6,30.37,ENE,67,5.0,12.0,98,0.00,,,0.00,Wunderground v.1.15,2013-03-11 16:44:00,
2013-03-11 09:49:00,45.2,44.7,30.37,ENE,65,5.0,12.0,98,0.00,,,0.00,Wunderground v.1.15,2013-03-11 16:49:00,
2013-03-11 09:55:00,45.6,45.3,30.37,ENE,63,4.0,12.0,99,0.00,,,0.00,Wunderground v.1.15,2013-03-11 16:55:00,
2013-03-11 10:00:00,45.9,45.6,30.37,NNE,24,3.0,12.0,99,0.00,,,0.00,Wunderground v.1.15,2013-03-11 17:00:00,
2013-03-11 10:05:00,45.8,45.3,30.37,North,360,5.0,12.0,98,0.00,,,0.00,Wunderground v.1.15,2013-03-11 17:05:00,
2013-03-11 10:11:00,45.8,45.3,30.38,North,355,6.0,12.0,98,0.00,,,0.00,Wunderground v.1.15,2013-03-11 17:11:00,
2013-03-11 10:17:00,45.8,45.3,30.37,North,351,7.0,12.0,98,0.00,,,0.00,Wunderground v.1.15,2013-03-11 17:17:00,
2013-03-11 10:22:00,46.0,45.7,30.37,North,360,6.0,12.0,99,0.00,,,0.00,Wunderground v.1.15,2013-03-11 17:22:00,
2013-03-11 10:27:00,46.0,45.5,30.37,NNE,12,6.0,12.0,98,0.00,,,0.00,Wunderground v.1.15,2013-03-11 17:27:00,
2013-03-11 10:33:00,46.1,45.6,30.37,North,360,4.0,12.0,98,0.00,,,0.00,Wunderground v.1.15,2013-03-11 17:33:00,
2013-03-11 10:38:00,46.2,45.7,30.37,North,360,4.0,12.0,98,0.00,,,0.00,Wunderground v.1.15,2013-03-11 17:38:00,
2013-03-11 10:43:00,46.2,45.7,30.37,North,360,5.0,12.0,98,0.00,,,0.00,Wunderground v.1.15,2013-03-11 17:43:00,
2013-03-11 10:49:00,46.2,45.7,30.37,North,5,6.0,12.0,98,0.00,,,0.00,Wunderground v.1.15,2013-03-11 17:49:00,
2013-03-11 10:55:00,46.2,45.7,30.37,North,360,7.0,12.0,98,0.00,,,0.00,Wunderground v.1.15,2013-03-11 17:55:00,
2013-03-11 11:00:00,46.4,45.9,30.37,North,355,7.0,7.0,98,0.00,,,0.00,Wunderground v.1.15,2013-03-11 18:00:00,
2013-03-11 11:06:00,46.6,46.1,30.37,North,355,6.0,12.0,98,0.00,,,0.00,Wunderground v.1.15,2013-03-11 18:06:00,
2013-03-11 11:12:00,46.6,46.1,30.36,North,355,6.0,12.0,98,0.00,,,0.00,Wunderground v.1.15,2013-03-11 18:12:00,
2013-03-11 11:17:00,46.9,46.4,30.36,North,351,5.0,12.0,98,0.00,,,0.00,Wunderground v.1.15,2013-03-11 18:17:00,
2013-03-11 11:22:00,47.0,46.5,30.36,North,355,5.0,12.0,98,0.00,,,0.00,Wunderground v.1.15,2013-03-11 18:22:00,
2013-03-11 11:27:00,47.0,46.5,30.36,North,355,5.0,12.0,98,0.00,,,0.00,Wunderground v.1.15,2013-03-11 18:27:00,
2013-03-11 11:33:00,46.9,46.4,30.36,North,355,6.0,12.0,98,0.00,,,0.00,Wunderground v.1.15,2013-03-11 18:33:00,
2013-03-11 11:39:00,47.1,46.6,30.35,North,355,6.0,12.0,98,0.00,,,0.00,Wunderground v.1.15,2013-03-11 18:39:00,
2013-03-11 11:45:00,47.2,46.7,30.35,North,351,6.0,12.0,98,0.00,,,0.00,Wunderground v.1.15,2013-03-11 18:45:00,
2013-03-11 11:50:00,47.1,46.6,30.35,North,360,7.0,12.0,98,0.00,,,0.00,Wunderground v.1.15,2013-03-11 18:50:00,
2013-03-11 11:55:00,47.1,46.6,30.35,North,355,7.0,12.0,98,0.00,,,0.00,Wunderground v.1.15,2013-03-11 18:55:00,
2013-03-11 12:01:00,47.2,46.7,30.35,North,355,6.0,12.0,98,0.00,,,0.00,Wunderground v.1.15,2013-03-11 19:01:00,
2013-03-11 12:06:00,47.4,46.9,30.35,North,355,6.0,12.0,98,0.00,,,0.00,Wunderground v.1.15,2013-03-11 19:06:00,
2013-03-11 12:12:00,47.6,47.1,30.35,North,355,6.0,12.0,98,0.00,,,0.00,Wunderground v.1.15,2013-03-11 19:12:00,
2013-03-11 12:17:00,47.6,47.1,30.35,North,360,6.0,12.0,98,0.00,,,0.00,Wunderground v.1.15,2013-03-11 19:17:00,
2013-03-11 12:22:00,47.7,47.2,30.34,North,355,5.0,12.0,98,0.00,,,0.00,Wunderground v.1.15,2013-03-11 19:22:00,
2013-03-11 12:28:00,47.7,46.9,30.34,North,355,6.0,12.0,97,0.00,,,0.00,Wunderground v.1.15,2013-03-11 19:28:00,
2013-03-11 12:33:00,47.6,46.8,30.34,North,360,6.0,12.0,97,0.00,,,0.00,Wunderground v.1.15,2013-03-11 19:33:00,
2013-03-11 12:39:00,47.7,46.9,30.34,North,350,6.0,12.0,97,0.00,,,0.00,Wunderground v.1.15,2013-03-11 19:39:00,
2013-03-11 12:44:00,47.7,46.9,30.34,North,349,6.0,12.0,97,0.00,,,0.00,Wunderground v.1.15,2013-03-11 19:44:00,
2013-03-11 12:50:00,47.6,46.8,30.34,North,355,6.0,12.0,97,0.00,,,0.00,Wunderground v.1.15,2013-03-11 19:50:00,
2013-03-11 12:55:00,47.3,46.5,30.34,NNW,344,6.0,12.0,97,0.00,,,0.00,Wunderground v.1.15,2013-03-11 19:55:00,
2013-03-11 13:02:00,47.3,46.5,30.34,North,355,6.0,12.0,97,0.00,,,0.00,Wunderground v.1.15,2013-03-11 20:02:00,
2013-03-11 13:08:00,47.2,46.4,30.34,NNW,333,5.0,12.0,97,0.00,,,0.00,Wunderground v.1.15,2013-03-11 20:08:00,
2013-03-11 13:14:00,47.1,46.3,30.34,NNW,348,5.0,12.0,97,0.00,,,0.00,Wunderground v.1.15,2013-03-11 20:14:00,
2013-03-11 13:19:00,46.9,46.1,30.34,North,350,5.0,12.0,97,0.00,,,0.00,Wunderground v.1.15,2013-03-11 20:19:00,
2013-03-11 13:24:00,46.4,45.6,30.33,NNW,348,7.0,12.0,97,0.00,,,0.00,Wunderground v.1.15,2013-03-11 20:24:00,
2013-03-11 13:30:00,46.2,45.4,30.33,North,360,8.0,12.0,97,0.00,,,0.00,Wunderground v.1.15,2013-03-11 20:30:00,
2013-03-11 13:36:00,46.1,45.3,30.33,North,355,9.0,12.0,97,0.00,,,0.00,Wunderground v.1.15,2013-03-11 20:36:00,
2013-03-11 13:42:00,46.3,45.8,30.33,NNW,343,8.0,12.0,98,0.00,,,0.00,Wunderground v.1.15,2013-03-11 20:42:00,
2013-03-11 13:47:00,46.4,45.9,30.33,North,360,8.0,12.0,98,0.00,,,0.00,Wunderground v.1.15,2013-03-11 20:47:00,
2013-03-11 13:53:00,46.4,45.9,30.33,North,355,8.0,12.0,98,0.00,,,0.00,Wunderground v.1.15,2013-03-11 20:53:00,
2013-03-11 13:58:00,46.6,46.1,30.32,North,355,8.0,12.0,98,0.00,,,0.00,Wunderground v.1.15,2013-03-11 20:58:00,
2013-03-11 14:03:00,46.4,45.9,30.32,North,355,7.0,12.0,98,0.00,,,0.00,Wunderground v.1.15,2013-03-11 21:03:00,
2013-03-11 14:09:00,46.3,45.8,30.32,NNW,340,8.0,12.0,98,0.00,,,0.00,Wunderground v.1.15,2013-03-11 21:09:00,
2013-03-11 14:14:00,46.1,45.6,30.32,North,350,8.0,12.0,98,0.00,,,0.00,Wunderground v.1.15,2013-03-11 21:14:00,
2013-03-11 14:20:00,46.1,45.6,30.32,North,355,8.0,8.0,98,0.00,,,0.00,Wunderground v.1.15,2013-03-11 21:20:00,
2013-03-11 14:26:00,46.0,45.5,30.32,North,349,9.0,12.0,98,0.00,,,0.00,Wunderground v.1.15,2013-03-11 21:26:00,
2013-03-11 14:32:00,46.2,45.7,30.32,North,355,8.0,12.0,98,0.00,,,0.00,Wunderground v.1.15,2013-03-11 21:32:00,
2013-03-11 14:38:00,46.1,45.6,30.31,North,350,9.0,12.0,98,0.00,,,0.00,Wunderground v.1.15,2013-03-11 21:38:00,
2013-03-11 14:44:00,46.3,45.8,30.31,North,355,8.0,12.0,98,0.00,,,0.00,Wunderground v.1.15,2013-03-11 21:44:00,
2013-03-11 14:49:00,46.4,45.9,30.31,North,355,7.0,12.0,98,0.00,,,0.00,Wunderground v.1.15,2013-03-11 21:49:00,
2013-03-11 14:54:00,46.0,45.5,30.31,North,5,8.0,12.0,98,0.00,,,0.00,Wunderground v.1.15,2013-03-11 21:54:00,
2013-03-11 15:00:00,46.1,45.6,30.31,NNW,343,9.0,12.0,98,0.00,,,0.00,Wunderground v.1.15,2013-03-11 22:00:00,
2013-03-11 15:05:00,46.3,45.8,30.31,NNW,341,8.0,12.0,98,0.00,,,0.01,Wunderground v.1.15,2013-03-11 22:05:00,
2013-03-11 15:10:00,46.3,45.8,30.31,NNW,347,9.0,9.0,98,0.00,,,0.01,Wunderground v.1.15,2013-03-11 22:10:00,
2013-03-11 15:15:00,46.1,45.6,30.30,North,355,9.0,12.0,98,0.00,,,0.01,Wunderground v.1.15,2013-03-11 22:15:00,
2013-03-11 15:21:00,46.0,45.5,30.30,North,355,9.0,10.0,98,0.00,,,0.01,Wunderground v.1.15,2013-03-11 22:21:00,
2013-03-11 15:27:00,46.0,45.5,30.30,North,355,9.0,13.0,98,0.00,,,0.01,Wunderground v.1.15,2013-03-11 22:27:00,
2013-03-11 15:33:00,45.9,45.4,30.30,North,349,10.0,12.0,98,0.00,,,0.01,Wunderground v.1.15,2013-03-11 22:33:00,
2013-03-11 15:39:00,46.1,45.6,30.30,North,355,10.0,13.0,98,0.00,,,0.01,Wunderground v.1.15,2013-03-11 22:39:00,
2013-03-11 15:44:00,45.9,45.4,30.31,North,355,10.0,13.0,98,0.00,,,0.01,Wunderground v.1.15,2013-03-11 22:44:00,
2013-03-11 15:50:00,46.1,45.6,30.31,North,360,10.0,12.0,98,0.00,,,0.01,Wunderground v.1.15,2013-03-11 22:50:00,
2013-03-11 15:55:00,46.1,45.6,30.31,North,355,9.0,12.0,98,0.00,,,0.01,Wunderground v.1.15,2013-03-11 22:55:00,
2013-03-11 16:01:00,46.4,45.9,30.30,North,355,9.0,12.0,98,0.00,,,0.01,Wunderground v.1.15,2013-03-11 23:01:00,
2013-03-11 16:07:00,46.6,46.1,30.30,North,355,8.0,12.0,98,0.00,,,0.01,Wunderground v.1.15,2013-03-11 23:07:00,
2013-03-11 16:12:00,46.7,46.2,30.30,North,355,6.0,12.0,98,0.00,,,0.01,Wunderground v.1.15,2013-03-11 23:12:00,
2013-03-11 16:18:00,46.8,46.3,30.30,North,5,5.0,12.0,98,0.00,,,0.01,Wunderground v.1.15,2013-03-11 23:18:00,
2013-03-11 16:24:00,46.7,46.2,30.29,North,350,6.0,12.0,98,0.00,,,0.01,Wunderground v.1.15,2013-03-11 23:24:00,
2013-03-11 16:29:00,46.6,46.1,30.29,North,360,7.0,12.0,98,0.00,,,0.01,Wunderground v.1.15,2013-03-11 23:29:00,
2013-03-11 16:34:00,46.8,46.3,30.29,North,355,5.0,12.0,98,0.00,,,0.01,Wunderground v.1.15,2013-03-11 23:34:00,
2013-03-11 16:40:00,47.0,46.5,30.29,North,5,3.0,12.0,98,0.00,,,0.01,Wunderground v.1.15,2013-03-11 23:40:00,
2013-03-11 16:46:00,47.0,46.5,30.28,North,5,4.0,12.0,98,0.00,,,0.01,Wunderground v.1.15,2013-03-11 23:46:00,
2013-03-11 16:52:00,47.2,46.7,30.28,North,355,4.0,12.0,98,0.00,,,0.01,Wunderground v.1.15,2013-03-11 23:52:00,
2013-03-11 16:57:00,47.3,46.8,30.28,North,360,5.0,12.0,98,0.00,,,0.01,Wunderground v.1.15,2013-03-11 23:57:00,
2013-03-11 17:02:00,47.6,47.1,30.28,North,355,6.0,12.0,98,0.00,,,0.01,Wunderground v.1.15,2013-03-12 00:02:00,
2013-03-11 17:08:00,47.8,47.3,30.27,North,5,5.0,12.0,98,0.00,,,0.01,Wunderground v.1.15,2013-03-12 00:08:00,
2013-03-11 17:14:00,48.0,47.5,30.27,North,355,5.0,12.0,98,0.00,,,0.01,Wunderground v.1.15,2013-03-12 00:14:00,
2013-03-11 17:20:00,47.9,47.4,30.26,North,355,5.0,5.0,98,0.00,,,0.01,Wunderground v.1.15,2013-03-12 00:20:00,
2013-03-11 17:25:00,47.9,47.4,30.26,North,5,6.0,12.0,98,0.00,,,0.01,Wunderground v.1.15,2013-03-12 00:25:00,
2013-03-11 17:31:00,47.9,47.4,30.26,NNW,346,7.0,12.0,98,0.00,,,0.01,Wunderground v.1.15,2013-03-12 00:31:00,
2013-03-11 17:36:00,48.0,47.2,30.26,North,355,7.0,12.0,97,0.00,,,0.01,Wunderground v.1.15,2013-03-12 00:36:00,
2013-03-11 17:42:00,47.8,47.0,30.26,NNW,346,6.0,12.0,97,0.00,,,0.01,Wunderground v.1.15,2013-03-12 00:42:00,
2013-03-11 17:47:00,47.6,46.8,30.26,North,360,6.0,12.0,97,0.00,,,0.01,Wunderground v.1.15,2013-03-12 00:47:00,
2013-03-11 17:52:00,47.7,46.9,30.26,North,5,6.0,12.0,97,0.00,,,0.01,Wunderground v.1.15,2013-03-12 00:52:00,
2013-03-11 17:58:00,47.9,47.1,30.25,North,355,5.0,12.0,97,0.00,,,0.01,Wunderground v.1.15,2013-03-12 00:58:00,
2013-03-11 18:04:00,47.9,47.1,30.25,North,360,6.0,12.0,97,0.00,,,0.01,Wunderground v.1.15,2013-03-12 01:04:00,
2013-03-11 18:09:00,47.8,47.0,30.25,North,355,6.0,12.0,97,0.00,,,0.01,Wunderground v.1.15,2013-03-12 01:09:00,
2013-03-11 18:15:00,47.5,46.7,30.25,North,5,7.0,12.0,97,0.00,,,0.01,Wunderground v.1.15,2013-03-12 01:15:00,
2013-03-11 18:20:00,47.5,46.7,30.25,North,360,7.0,12.0,97,0.00,,,0.01,Wunderground v.1.15,2013-03-12 01:20:00,
2013-03-11 18:26:00,47.3,46.5,30.25,North,360,7.0,12.0,97,0.00,,,0.01,Wunderground v.1.15,2013-03-12 01:26:00,
2013-03-11 18:32:00,47.3,46.5,30.25,North,360,7.0,12.0,97,0.00,,,0.01,Wunderground v.1.15,2013-03-12 01:32:00,
2013-03-11 18:37:00,47.2,46.4,30.25,North,5,7.0,12.0,97,0.00,,,0.01,Wunderground v.1.15,2013-03-12 01:37:00,
2013-03-11 18:43:00,47.1,46.3,30.25,North,355,7.0,12.0,97,0.00,,,0.01,Wunderground v.1.15,2013-03-12 01:43:00,
2013-03-11 18:49:00,47.1,46.3,30.25,North,355,5.0,12.0,97,0.00,,,0.01,Wunderground v.1.15,2013-03-12 01:49:00,
2013-03-11 18:55:00,47.0,46.2,30.25,North,9,4.0,12.0,97,0.00,,,0.01,Wunderground v.1.15,2013-03-12 01:55:00,
2013-03-11 19:01:00,46.9,46.1,30.25,North,355,5.0,12.0,97,0.00,,,0.01,Wunderground v.1.15,2013-03-12 02:01:00,
2013-03-11 19:06:00,46.9,46.4,30.25,North,355,6.0,12.0,98,0.00,,,0.01,Wunderground v.1.15,2013-03-12 02:06:00,
2013-03-11 19:12:00,46.8,46.3,30.25,NNW,344,7.0,12.0,98,0.00,,,0.01,Wunderground v.1.15,2013-03-12 02:12:00,
2013-03-11 19:17:00,46.8,46.3,30.25,North,5,8.0,12.0,98,0.00,,,0.01,Wunderground v.1.15,2013-03-12 02:17:00,
2013-03-11 19:23:00,46.8,46.3,30.25,North,5,7.0,12.0,98,0.00,,,0.01,Wunderground v.1.15,2013-03-12 02:23:00,
2013-03-11 19:28:00,46.7,46.2,30.25,North,360,7.0,12.0,98,0.00,,,0.01,Wunderground v.1.15,2013-03-12 02:28:00,
2013-03-11 19:33:00,46.7,46.2,30.25,North,360,5.0,12.0,98,0.00,,,0.01,Wunderground v.1.15,2013-03-12 02:33:00,
2013-03-11 19:38:00,46.6,46.1,30.25,North,5,3.0,12.0,98,0.00,,,0.01,Wunderground v.1.15,2013-03-12 02:38:00,
2013-03-11 19:44:00,46.6,46.1,30.25,North,5,3.0,12.0,98,0.00,,,0.01,Wunderground v.1.15,2013-03-12 02:44:00,
2013-03-11 19:50:00,46.6,46.1,30.25,North,360,6.0,12.0,98,0.00,,,0.01,Wunderground v.1.15,2013-03-12 02:50:00,
2013-03-11 19:56:00,46.7,46.2,30.25,North,360,7.0,12.0,98,0.00,,,0.01,Wunderground v.1.15,2013-03-12 02:56:00,
2013-03-11 20:01:00,46.6,46.1,30.25,North,355,6.0,12.0,98,0.00,,,0.01,Wunderground v.1.15,2013-03-12 03:01:00,
2013-03-11 20:07:00,46.6,46.1,30.25,North,355,5.0,12.0,98,0.00,,,0.01,Wunderground v.1.15,2013-03-12 03:07:00,
2013-03-11 20:13:00,46.7,46.2,30.26,North,360,6.0,12.0,98,0.00,,,0.01,Wunderground v.1.15,2013-03-12 03:13:00,
2013-03-11 20:18:00,46.7,46.2,30.26,North,10,7.0,12.0,98,0.00,,,0.01,Wunderground v.1.15,2013-03-12 03:18:00,
2013-03-11 20:24:00,46.7,46.2,30.26,North,360,7.0,12.0,98,0.00,,,0.01,Wunderground v.1.15,2013-03-12 03:24:00,
2013-03-11 20:29:00,46.7,46.2,30.26,North,355,8.0,12.0,98,0.00,,,0.01,Wunderground v.1.15,2013-03-12 03:29:00,
2013-03-11 20:34:00,46.7,46.2,30.26,North,360,8.0,12.0,98,0.00,,,0.01,Wunderground v.1.15,2013-03-12 03:34:00,
2013-03-11 20:40:00,46.8,46.3,30.26,North,360,8.0,12.0,98,0.00,,,0.01,Wunderground v.1.15,2013-03-12 03:40:00,
2013-03-11 20:45:00,46.8,46.3,30.25,North,355,9.0,12.0,98,0.00,,,0.01,Wunderground v.1.15,2013-03-12 03:45:00,
2013-03-11 20:52:00,46.8,46.3,30.25,ENE,57,5.0,12.0,98,0.00,,,0.01,Wunderground v.1.15,2013-03-12 03:52:00,
2013-03-11 20:58:00,46.9,46.4,30.26,NE,34,3.0,12.0,98,0.00,,,0.01,Wunderground v.1.15,2013-03-12 03:58:00,
2013-03-11 21:00:00,46.9,46.4,30.26,NE,34,2.0,2.0,98,0.00,,,0.01,Wunderground v.1.15,2013-03-12 04:00:00,
2013-03-11 21:02:00,46.9,46.4,30.26,NE,34,2.0,12.0,98,0.00,,,0.01,Wunderground v.1.15,2013-03-12 04:02:00,
2013-03-11 21:04:00,46.9,46.4,30.26,NNE,32,2.0,12.0,98,0.00,,,0.01,Wunderground v.1.15,2013-03-12 04:04:00,
2013-03-11 21:09:00,47.0,46.5,30.26,North,5,3.0,12.0,98,0.00,,,0.01,Wunderground v.1.15,2013-03-12 04:09:00,
2013-03-11 21:12:00,47.0,46.5,30.26,North,5,3.0,12.0,98,0.00,,,0.01,Wunderground v.1.15,2013-03-12 04:12:00,
2013-03-11 21:17:00,46.9,46.4,30.26,North,5,4.0,12.0,98,0.00,,,0.01,Wunderground v.1.15,2013-03-12 04:17:00,
2013-03-11 21:23:00,46.9,46.4,30.26,North,360,3.0,12.0,98,0.00,,,0.01,Wunderground v.1.15,2013-03-12 04:23:00,
2013-03-11 21:29:00,46.9,46.4,30.26,North,360,3.0,12.0,98,0.00,,,0.01,Wunderground v.1.15,2013-03-12 04:29:00,
2013-03-11 21:34:00,46.9,46.4,30.27,North,360,3.0,12.0,98,0.00,,,0.01,Wunderground v.1.15,2013-03-12 04:34:00,
2013-03-11 21:40:00,46.9,46.4,30.27,North,360,3.0,12.0,98,0.00,,,0.01,Wunderground v.1.15,2013-03-12 04:40:00,
2013-03-11 21:45:00,46.8,46.3,30.27,North,360,3.0,12.0,98,0.00,,,0.01,Wunderground v.1.15,2013-03-12 04:45:00,
2013-03-11 21:50:00,46.8,46.3,30.26,North,9,4.0,4.0,98,0.00,,,0.01,Wunderground v.1.15,2013-03-12 04:50:00,
2013-03-11 21:57:00,46.7,46.2,30.26,North,5,2.0,12.0,98,0.00,,,0.01,Wunderground v.1.15,2013-03-12 04:57:00,
2013-03-11 22:02:00,46.6,46.1,30.26,North,5,1.0,12.0,98,0.00,,,0.01,Wunderground v.1.15,2013-03-12 05:02:00,
2013-03-11 22:08:00,46.5,46.0,30.26,North,5,1.0,12.0,98,0.00,,,0.01,Wunderground v.1.15,2013-03-12 05:08:00,
2013-03-11 22:14:00,46.5,46.0,30.27,North,5,1.0,12.0,98,0.00,,,0.01,Wunderground v.1.15,2013-03-12 05:14:00,
2013-03-11 22:19:00,46.5,46.0,30.27,North,360,2.0,12.0,98,0.00,,,0.01,Wunderground v.1.15,2013-03-12 05:19:00,
2013-03-11 22:25:00,46.2,45.7,30.26,North,355,3.0,12.0,98,0.00,,,0.01,Wunderground v.1.15,2013-03-12 05:25:00,
2013-03-11 22:31:00,46.1,45.6,30.26,North,355,3.0,12.0,98,0.00,,,0.01,Wunderground v.1.15,2013-03-12 05:31:00,
2013-03-11 22:37:00,45.7,45.2,30.26,North,355,4.0,12.0,98,0.00,,,0.01,Wunderground v.1.15,2013-03-12 05:37:00,
2013-03-11 22:43:00,45.5,45.0,30.26,North,355,4.0,12.0,98,0.00,,,0.01,Wunderground v.1.15,2013-03-12 05:43:00,
2013-03-11 22:49:00,45.5,45.0,30.26,North,355,4.0,12.0,98,0.00,,,0.01,Wunderground v.1.15,2013-03-12 05:49:00,
2013-03-11 22:54:00,45.4,44.9,30.26,North,355,3.0,12.0,98,0.00,,,0.01,Wunderground v.1.15,2013-03-12 05:54:00,
2013-03-11 23:00:00,45.4,44.9,30.26,North,355,3.0,12.0,98,0.00,,,0.01,Wunderground v.1.15,2013-03-12 06:00:00,
2013-03-11 23:07:00,45.3,44.8,30.26,North,355,5.0,12.0,98,0.00,,,0.01,Wunderground v.1.15,2013-03-12 06:07:00,
2013-03-11 23:13:00,45.2,44.7,30.26,North,355,4.0,12.0,98,0.00,,,0.01,Wunderground v.1.15,2013-03-12 06:13:00,
2013-03-11 23:19:00,45.2,44.7,30.26,North,355,2.0,12.0,98,0.00,,,0.01,Wunderground v.1.15,2013-03-12 06:19:00,
2013-03-11 23:25:00,45.2,44.7,30.25,North,355,2.0,12.0,98,0.00,,,0.01,Wunderground v.1.15,2013-03-12 06:25:00,
2013-03-11 23:30:00,45.2,44.7,30.25,North,355,1.0,1.0,98,0.00,,,0.01,Wunderground v.1.15,2013-03-12 06:30:00,
2013-03-11 23:36:00,45.3,44.8,30.25,North,355,1.0,12.0,98,0.00,,,0.01,Wunderground v.1.15,2013-03-12 06:36:00,
2013-03-11 23:41:00,45.3,44.8,30.25,North,355,1.0,12.0,98,0.00,,,0.01,Wunderground v.1.15,2013-03-12 06:41:00,
2013-03-11 23:47:00,45.3,44.8,30.24,North,355,2.0,12.0,98,0.00,,,0.01,Wunderground v.1.15,2013-03-12 06:47:00,
2013-03-11 23:53:00,44.9,44.4,30.25,North,355,2.0,12.0,98,0.00,,,0.01,Wunderground v.1.15,2013-03-12 06:53:00,
2013-03-11 23:58:00,44.7,44.2,30.25,North,355,1.0,12.0,98,0.00,,,0.01,Wunderground v.1.15,2013-03-12 06:58:00,